GFSFLT2_sfc_rhum_186.txt.gz
RH
79 78 75 77 73 76 73 68 75 59 59 62 61 61 61 60 60 59 58 58 58 57 57 56 59 60 61
88 84 81 78 80 77 59 52 70 61 63 59 58 61 61 60 59 58 58 59 58 57 58 61 59 60 65
91 90 88 85 85 79 70 76 62 64 62 60 62 62 61 61 60 60 60 61 60 60 57 57 56 63 58
95 94 92 87 87 84 82 85 86 69 66 63 65 63 64 65 62 63 63 61 60 60 70 64 65 63 57
93 93 91 85 85 82 87 88 90 86 86 78 71 72 72 67 65 67 62 62 60 70 62 56 61 60 63
94 90 87 84 89 90 96 87 90 86 87 79 77 75 73 69 65 65 65 61 63 71 60 59 60 66 60
89 90 91 90 82 87 90 96 95 79 89 82 76 78 72 62 70 67 62 59 61 61 60 60 63 63 64
87 88 89 82 78 78 87 94 86 76 81 90 82 84 71 76 71 68 63 61 63 64 62 63 64 67 68
63 62 62 62 65 84 93 97 88 77 73 94 85 81 73 75 79 66 65 64 67 66 68 66 69 68 77
76 75 73 76 67 82 93 99 94 91 86 92 87 94 95 88 82 67 79 70 69 71 72 71 71 78 86
82 83 86 86 87 85 89 97 97 94 78 84 98 94 94 91 87 76 72 81 77 79 77 77 72 70 83
87 93 91 85 86 87 90 92 90 91 85 90 97 97 96 92 88 78 70 74 80 89 89 85 80 76 77
84 95 91 90 87 91 90 89 90 92 76 86 95 95 98 94 89 83 82 73 80 97 84 92 88 86 92
87 91 87 94 93 86 93 91 88 90 82 86 90 93 98 92 89 91 82 93 85 88 90 88 82 86 91
91 91 86 87 88 85 92 96 95 94 92 86 88 91 93 96 97 88 88 90 83 88 88 86 80 80 82
97 96 92 95 96 93 96 99 97 91 92 90 92 95 97 91 71 88 85 87 83 83 89 94 88 80 76
97 97 95 96 92 96 95 95 94 92 92 91 100 100 97 94 88 60 85 84 88 91 87 89 93 85 79

GFSFLT2_sfc_rhum_189.txt.gz
RH
83 84 78 81 77 77 72 67 75 64 63 64 60 60 63 62 62 60 59 59 60 59 57 60 65 64 66
90 88 84 84 86 81 65 54 74 65 65 64 61 64 63 63 63 62 61 62 61 59 58 57 60 66 62
92 93 93 91 88 83 77 80 65 66 67 65 63 64 63 63 64 62 63 63 62 59 58 67 61 60 60
94 94 94 90 88 85 80 84 79 66 70 67 66 65 65 66 62 64 66 64 61 59 59 66 60 58 57
93 94 91 87 89 88 91 86 80 85 86 79 78 79 78 70 67 67 65 63 61 61 72 70 61 58 60
95 93 92 90 93 93 94 88 86 87 86 77 81 78 75 74 66 67 64 62 60 56 60 61 59 61 66
92 92 93 90 80 88 91 90 93 79 85 82 78 82 75 63 68 69 63 63 61 62 63 61 60 64 65
88 87 90 87 83 83 86 92 87 77 80 98 89 84 67 70 68 69 67 65 61 65 65 63 65 68 68
65 62 61 63 67 84 93 96 85 80 78 97 84 79 73 76 80 68 60 63 66 68 67 66 70 73 76
74 73 75 79 67 83 92 98 90 92 86 95 86 96 94 83 81 69 77 69 68 70 71 69 73 73 84
80 84 87 85 84 87 90 96 97 94 77 85 98 92 98 90 84 72 75 76 71 74 75 76 73 69 82
85 88 94 91 89 90 91 92 92 91 84 91 97 95 96 93 85 74 72 70 73 80 85 81 76 75 73
86 88 92 92 87 93 91 89 88 90 73 85 94 96 98 95 93 87 84 80 79 94 82 87 88 85 90
90 83 89 97 95 93 95 90 96 87 75 82 88 93 96 95 95 91 87 95 85 84 86 84 80 83 87
94 94 88 82 81 92 94 96 98 95 92 84 85 90 93 95 96 90 88 88 84 85 86 87 82 82 82
98 99 97 92 91 94 98 99 98 94 93 90 92 95 91 91 79 93 88 86 83 83 84 94 88 78 75
100 100 99 96 91 95 95 97 95 93 93 91 96 99 95 95 88 61 87 82 85 90 88 90 92 84 77

GFSFLT2_sfc_rhum_195.txt.gz
RH
64 62 61 64 61 63 59 54 54 64 64 64 64 61 62 63 64 64 64 62 63 63 62 60 59 57 56
64 65 63 65 69 62 54 49 54 58 65 63 62 61 63 64 65 65 64 64 65 64 62 61 59 59 58
72 72 71 74 67 62 60 59 53 60 60 63 61 63 63 66 66 64 64 65 66 64 61 62 65 66 67
70 75 76 69 65 65 59 55 56 50 59 59 62 65 66 66 62 64 68 69 64 62 64 58 64 64 62
79 72 64 62 64 65 63 60 53 61 57 48 49 50 52 57 59 66 65 66 63 63 60 67 61 60 61
72 63 67 65 67 69 69 69 70 63 60 55 51 51 49 47 60 66 66 62 61 68 83 64 62 62 66
64 67 66 65 70 72 72 76 70 57 61 63 50 52 48 44 62 66 66 62 62 63 64 64 63 63 65
68 68 66 66 71 70 75 71 59 52 56 70 54 58 50 52 60 65 68 61 62 64 63 65 65 64 69
67 61 62 64 63 61 67 76 68 54 50 67 55 59 54 52 47 63 63 64 64 65 64 67 66 66 69
57 58 63 66 68 63 67 81 76 75 55 73 64 66 74 51 52 50 50 59 63 64 67 68 67 59 59
59 59 58 60 61 63 65 74 86 83 58 72 81 77 82 79 56 51 51 51 52 56 65 68 68 66 64
62 60 62 66 70 72 72 74 74 79 67 71 91 87 89 87 79 55 56 57 58 62 64 68 68 69 70
68 70 69 72 73 77 72 74 74 73 62 70 81 83 87 92 86 78 74 64 64 72 68 68 67 66 74
72 66 69 81 80 75 80 77 85 78 66 70 74 82 91 85 84 87 73 86 66 68 71 70 66 66 72
78 80 78 78 78 75 81 86 91 87 84 77 77 77 83 92 93 79 74 74 70 75 77 80 70 65 67
85 87 89 91 90 86 87 90 93 87 86 83 85 90 82 74 69 84 82 82 76 74 73 85 82 65 57
92 95 95 93 91 91 89 91 91 86 87 86 92 95 95 92 66 58 81 79 80 83 76 76 86 77 62

GFSFLT2_sfc_rhum_198.txt.gz
RH
50 50 50 51 50 49 51 47 47 55 62 65 65 63 61 64 65 66 65 65 65 66 65 64 62 61 60
58 58 54 55 55 56 52 45 49 48 60 64 62 60 63 64 65 66 66 65 65 67 66 64 62 62 62
56 57 60 61 62 60 55 55 43 48 53 58 56 62 63 64 66 63 62 66 68 67 65 62 61 61 62
55 60 63 67 63 60 50 46 45 38 48 52 51 53 57 60 64 60 66 68 67 66 64 64 59 63 62
55 58 58 55 52 55 54 50 44 52 48 43 40 42 41 48 49 54 65 67 64 64 70 71 79 76 62
56 48 54 51 53 56 59 61 59 52 50 47 41 41 39 40 51 58 64 66 70 63 64 64 65 63 62
51 52 52 53 56 62 62 67 62 50 51 53 41 44 42 37 53 57 64 73 62 63 63 64 63 64 64
56 57 55 57 61 63 66 60 50 42 46 58 43 45 42 42 51 54 63 68 68 64 64 63 63 65 64
64 62 61 63 62 59 62 68 64 45 42 57 48 50 47 44 40 51 56 59 61 62 64 64 64 65 59
49 49 53 56 66 58 60 75 71 72 48 66 60 58 72 45 45 45 43 54 57 58 61 63 65 58 54
49 51 50 50 50 53 56 66 79 77 54 70 80 75 82 76 54 49 47 46 47 50 56 58 61 64 62
53 50 55 60 62 64 64 65 63 69 60 65 91 87 92 88 78 52 52 53 53 57 57 62 63 64 64
58 63 63 66 67 70 65 62 64 64 57 63 78 81 85 91 88 79 71 63 62 64 65 65 64 63 70
64 59 62 72 72 68 74 70 77 73 61 64 71 79 88 85 85 86 70 85 64 64 68 67 62 61 66
70 71 68 69 71 69 74 79 85 80 76 70 73 73 78 89 92 80 74 71 67 72 73 75 67 61 61
77 79 82 82 81 79 78 82 85 80 81 80 83 87 82 77 68 80 79 77 72 72 71 82 78 64 55
83 85 86 87 84 85 83 84 85 81 82 84 87 89 92 92 66 58 79 78 78 81 75 75 82 74 62

GFSFLT2_sfc_rhum_201.txt.gz
RH
58 57 56 57 60 58 57 57 56 51 53 60 64 64 62 62 64 65 67 66 66 66 66 66 65 63 62
64 66 64 60 62 64 51 43 54 48 51 59 63 59 60 62 63 64 66 63 64 66 67 66 65 63 61
69 66 69 66 68 64 62 63 48 48 46 56 58 56 55 60 63 64 63 64 66 67 66 65 64 61 64
67 67 66 70 67 66 63 63 58 40 47 53 50 47 50 52 52 59 55 61 65 65 63 62 69 69 69
68 65 62 64 60 64 62 62 58 63 60 56 55 54 55 46 48 48 56 62 64 68 65 62 62 60 62
61 58 61 62 62 64 66 71 72 63 59 58 58 57 55 54 48 52 57 61 64 64 60 63 63 62 61
57 61 62 61 62 68 71 77 72 59 57 62 56 55 53 40 51 52 54 63 64 66 70 62 63 62 61
62 62 62 62 67 67 74 69 58 56 56 70 56 55 52 54 51 48 54 57 58 59 60 61 62 62 61
67 64 62 61 63 65 75 79 76 58 58 69 62 61 58 58 52 49 57 55 57 59 59 60 61 61 63
59 57 56 60 61 64 70 87 83 86 64 78 72 72 89 64 63 59 56 58 59 56 59 59 59 64 70
55 59 56 58 59 62 65 79 91 88 64 78 96 88 90 85 69 62 61 60 59 60 60 60 60 63 70
61 57 64 71 74 76 76 76 76 76 70 74 94 93 94 92 87 67 66 66 68 70 69 67 63 63 63
67 77 76 77 76 83 80 77 77 76 65 76 86 88 91 94 92 84 78 74 72 82 78 75 74 72 77
76 70 73 90 90 87 91 87 88 85 76 77 78 82 94 91 90 91 81 92 78 75 76 74 70 71 75
86 88 82 84 88 89 92 92 93 90 87 86 87 80 84 92 95 85 86 86 80 79 79 79 74 71 72
93 93 93 95 93 88 87 91 91 83 89 88 88 90 87 84 76 90 86 82 78 79 77 86 84 74 68
95 95 94 90 88 85 85 90 92 90 89 89 91 91 94 92 81 58 84 80 81 85 84 84 86 80 72

GFSFLT2_sfc_rhum_204.txt.gz
RH
76 73 64 70 70 65 62 65 64 50 52 55 61 64 62 60 62 63 64 65 64 66 66 66 64 63 62
82 80 78 72 76 72 58 49 63 53 52 54 61 64 59 57 61 64 65 64 65 65 66 65 64 63 62
86 83 85 80 80 74 70 70 57 52 45 46 52 55 54 52 55 56 62 60 60 63 63 63 62 64 68
84 85 85 81 78 76 74 76 69 48 48 49 51 50 49 51 49 51 54 55 60 62 62 65 61 60 61
83 82 80 83 77 78 76 77 73 70 68 63 60 60 64 55 53 49 53 58 60 63 62 58 63 66 62
79 75 73 77 76 74 75 78 83 70 64 62 63 62 61 61 50 53 55 57 63 63 61 62 62 60 61
72 69 71 71 73 79 81 86 80 69 63 66 60 64 62 48 56 54 51 57 60 59 60 60 61 61 59
71 72 73 70 71 72 77 75 68 66 60 72 67 64 65 69 59 50 50 58 57 60 62 60 59 61 61
66 64 62 60 65 69 80 86 82 66 69 72 72 71 65 70 62 54 59 58 61 62 58 60 62 61 67
68 61 60 64 59 67 77 95 91 91 71 83 80 82 90 72 71 72 72 64 61 60 63 66 64 67 78
62 65 61 63 66 68 70 83 95 94 78 87 97 93 96 93 77 73 74 70 68 66 68 68 67 64 67
65 62 69 75 78 80 79 80 81 83 77 81 97 98 95 91 87 72 71 70 75 77 74 74 73 68 66
71 80 80 79 78 84 84 83 83 83 71 82 94 92 97 95 92 87 77 74 75 84 94 80 80 75 80
80 74 76 92 93 91 94 93 97 90 82 82 86 91 95 95 94 91 81 91 77 79 83 81 76 75 78
90 91 86 88 91 94 97 98 98 96 94 95 90 89 90 90 94 86 84 83 82 84 88 87 78 73 74
95 97 97 98 98 97 97 98 98 95 92 91 97 94 88 84 75 88 86 89 86 81 79 90 87 76 71
96 97 98 98 93 98 88 91 91 92 92 88 93 98 95 92 76 60 81 88 86 86 84 86 90 82 75

GFSFLT2_sfc_rhum_207.txt.gz
RH
79 76 76 72 73 68 68 68 65 50 50 53 55 59 62 58 57 60 62 62 62 64 64 64 64 63 61
81 82 81 78 75 74 59 48 60 52 50 51 52 60 61 58 53 55 58 62 62 60 64 64 63 62 62
87 89 87 86 84 77 73 75 60 56 50 45 47 52 53 50 50 52 52 58 56 59 62 62 63 63 60
85 90 89 84 81 76 74 79 73 52 51 51 52 51 49 50 48 48 49 52 57 61 62 60 59 61 64
87 86 85 83 76 79 76 80 76 77 70 69 68 67 66 56 52 50 52 55 58 63 64 61 60 60 63
84 77 76 76 82 80 82 83 84 81 74 71 69 65 61 62 50 54 56 54 58 62 60 61 60 60 60
72 75 77 77 79 85 87 89 85 75 68 72 66 66 63 50 58 57 54 52 58 59 60 62 62 60 60
78 80 80 77 78 78 79 76 70 68 64 73 68 67 66 74 61 58 47 58 58 61 63 61 60 63 63
68 66 64 65 68 73 80 87 80 69 70 70 72 72 70 72 64 55 60 60 61 62 63 63 64 65 73
73 68 70 67 66 74 77 90 86 88 71 86 81 84 89 70 69 74 74 69 65 66 67 66 66 75 81
68 68 65 66 70 72 72 84 94 95 78 90 95 92 95 91 74 70 76 77 72 72 69 70 70 68 76
68 66 70 76 80 81 79 81 83 86 80 83 97 96 98 93 88 70 71 72 77 80 76 78 72 72 71
72 80 81 79 80 84 82 85 85 84 74 83 96 93 98 95 93 88 81 77 78 88 96 81 82 80 84
82 76 78 93 95 94 94 92 95 88 82 83 88 93 96 95 95 92 82 91 83 81 84 83 78 81 81
91 91 89 90 91 92 95 96 98 97 92 94 92 90 91 94 97 89 88 88 84 85 86 87 79 73 74
95 95 96 97 97 97 98 98 98 93 95 97 98 99 97 91 78 92 90 92 84 81 84 92 84 73 69
95 96 98 98 95 98 98 97 94 89 91 97 99 100 96 94 86 57 88 83 86 83 82 86 90 81 72

GFSFLT2_sfc_rhum_213.txt.gz
RH
92 89 91 88 87 72 75 71 69 54 55 55 56 57 58 63 63 60 59 62 64 63 62 62 62 62 62
92 92 87 83 75 78 65 56 63 50 50 51 54 55 60 65 63 60 57 59 61 64 63 61 63 63 62
94 89 88 85 79 75 77 77 60 55 52 54 55 54 60 61 61 56 56 55 58 58 60 62 63 63 60
94 95 94 86 79 77 79 80 72 56 54 52 56 56 55 55 54 54 53 53 54 57 60 62 64 63 63
94 91 87 81 80 77 72 76 77 82 75 73 70 68 68 59 57 52 52 53 57 58 60 63 62 62 62
90 82 84 76 78 78 78 77 69 87 77 69 74 71 69 70 54 52 55 57 58 58 61 62 62 63 63
78 77 78 79 79 83 82 82 72 81 76 74 73 67 66 56 56 58 60 60 59 58 60 62 64 64 65
74 74 73 79 75 76 80 81 79 74 76 83 81 74 73 72 64 62 61 59 58 60 61 63 64 66 67
69 68 69 70 76 74 82 91 89 76 77 79 80 80 79 78 69 60 60 61 65 64 63 64 66 68 72
83 76 77 70 66 73 81 94 96 93 76 92 86 84 86 70 68 76 80 72 70 68 66 68 69 73 84
79 85 79 80 78 77 77 86 97 96 77 87 98 97 98 93 76 70 83 80 76 72 72 71 70 72 80
73 74 74 78 82 82 82 83 83 79 78 83 97 97 98 97 92 72 71 69 72 76 79 75 76 70 71
69 81 83 83 85 87 83 83 85 85 78 87 96 95 99 96 95 87 84 75 74 82 91 90 85 81 86
79 79 85 94 95 95 98 97 98 96 84 85 88 95 100 96 96 94 85 94 87 83 85 83 79 78 82
93 92 88 95 96 98 98 99 98 98 98 97 92 91 94 96 97 90 90 90 85 88 90 88 77 75 76
97 96 96 97 98 99 98 99 99 98 98 98 98 98 96 91 85 94 92 94 88 88 87 92 87 74 68
95 95 97 98 95 98 98 99 98 97 97 98 100 98 98 95 90 61 86 90 85 86 85 90 92 82 72

GFSFLT2_sfc_rhum_216.txt.gz
RH
95 95 98 98 98 96 95 88 82 63 59 58 59 59 58 60 62 63 63 61 62 63 62 60 60 60 61
94 97 95 96 95 94 83 69 68 58 58 59 59 58 59 60 64 65 62 59 60 62 64 63 62 62 63
96 93 91 91 90 84 76 70 56 52 52 53 54 55 55 61 66 65 62 58 59 61 60 61 62 63 63
96 96 95 91 85 79 77 74 70 57 56 55 57 55 56 58 59 58 57 57 58 57 58 61 62 64 63
96 95 95 95 92 92 80 75 75 77 73 71 70 69 66 62 60 59 58 55 55 57 60 60 64 63 63
96 93 97 94 90 78 75 71 68 88 78 70 72 69 68 74 62 57 52 54 57 59 59 63 63 63 63
93 89 88 84 74 78 77 77 69 85 74 71 78 71 66 57 57 57 58 60 61 61 61 62 62 63 64
77 74 75 75 72 74 76 80 77 74 76 77 82 72 71 72 64 62 62 62 63 60 62 63 63 65 65
70 71 70 68 74 68 78 82 84 74 78 73 79 80 80 77 68 61 61 60 61 66 68 65 65 66 72
82 79 79 70 64 64 76 89 93 90 78 90 85 85 82 70 69 71 75 67 66 67 66 66 68 76 80
76 75 76 75 79 79 78 84 95 92 76 86 99 98 98 94 77 73 78 80 78 73 70 70 70 71 80
68 71 74 79 81 82 81 82 80 76 79 83 96 96 98 98 93 73 71 74 77 77 81 76 75 70 70
67 79 81 82 84 87 84 82 85 83 78 85 94 95 98 98 96 89 86 81 76 84 91 91 87 82 86
75 76 85 94 95 94 96 96 98 96 85 88 91 96 100 98 97 94 86 96 85 82 83 83 82 81 83
92 93 89 94 96 98 98 99 98 98 98 96 94 94 96 97 99 92 92 91 86 88 89 88 77 73 74
97 98 97 98 98 99 99 99 98 98 97 98 98 97 96 92 87 93 92 93 87 86 84 93 88 74 69
97 97 98 98 95 98 98 99 99 98 96 98 98 97 98 96 92 65 91 86 88 87 86 89 92 82 72